When you browse on this site, cookies collect data to enhance your experience and personalize the content and advertising you see.
Visit our Privacy Policy to learn more. By continuing to use the site, you agree to this use of cookies and data.
  • In Schweiz
  • Länderverzeichnis
  • Für 7 Tage
  • Wassertemperatur
  • Satellitenkarten
  • Wetterkarte
  • Widgets
  • user-avatar
    Anmelden

    Stündliche Wetter Asadabad

    Heute, 25 April, Donnerstag

    Zeit Temperatur Niederschläge Wind Luftdruck Luftfeuchtigkeit
    00:00 +18°C° 0.4 mm 2 m/S 659 mmHg 65%
    01:00 +18°C° 0.4 mm 2 m/S 659 mmHg 66%
    02:00 +17°C° 0.4 mm 3 m/S 658 mmHg 67%
    03:00 +17°C° 0.5 mm 3 m/S 658 mmHg 66%
    04:00 +16°C° 0.5 mm 3 m/S 658 mmHg 66%
    05:00 +16°C° 0 mm 3 m/S 658 mmHg 68%
    06:00 +17°C° 0.4 mm 3 m/S 659 mmHg 64%
    07:00 +19°C° 0.4 mm 2 m/S 659 mmHg 59%
    08:00 +20°C° 0.4 mm 2 m/S 660 mmHg 54%
    09:00 +21°C° 0.2 mm 2 m/S 660 mmHg 50%
    10:00 +23°C° 0.2 mm 2 m/S 660 mmHg 46%
    11:00 +25°C° 0.2 mm 2 m/S 660 mmHg 42%
    12:00 +25°C° 0.3 mm 2 m/S 660 mmHg 41%
    13:00 +26°C° 0.3 mm 3 m/S 660 mmHg 39%
    14:00 +27°C° 0.3 mm 3 m/S 660 mmHg 37%
    15:00 +26°C° 0.5 mm 3 m/S 660 mmHg 39%
    16:00 +26°C° 0.5 mm 3 m/S 659 mmHg 40%
    17:00 +26°C° 0.5 mm 2 m/S 659 mmHg 42%
    18:00 +24°C° 0.8 mm 2 m/S 659 mmHg 48%
    19:00 +21°C° 0.8 mm 2 m/S 658 mmHg 53%
    20:00 +20°C° 0.8 mm 2 m/S 658 mmHg 59%
    21:00 +19°C° 1.4 mm 2 m/S 658 mmHg 61%
    22:00 +18°C° 1.4 mm 3 m/S 658 mmHg 63%
    23:00 +17°C° 1.4 mm 4 m/S 658 mmHg 66%

    Morgen, 26 April, Freitag

    Zeit Temperatur Niederschläge Wind Luftdruck Luftfeuchtigkeit
    00:00 +17°C° 0.7 mm 4 m/S 658 mmHg 64%
    01:00 +17°C° 0.7 mm 3 m/S 658 mmHg 62%
    02:00 +16°C° 0.7 mm 3 m/S 657 mmHg 60%
    03:00 +16°C° 0.1 mm 3 m/S 657 mmHg 58%
    04:00 +16°C° 0.1 mm 3 m/S 657 mmHg 57%
    05:00 +16°C° 0.1 mm 3 m/S 657 mmHg 55%
    06:00 +17°C° 0.1 mm 2 m/S 658 mmHg 49%
    07:00 +19°C° 0.1 mm 2 m/S 659 mmHg 44%
    08:00 +21°C° 0.1 mm 2 m/S 659 mmHg 39%
    09:00 +23°C° 0.1 mm 2 m/S 660 mmHg 38%
    10:00 +24°C° 0.1 mm 2 m/S 660 mmHg 37%
    11:00 +25°C° 0.1 mm 2 m/S 660 mmHg 36%
    12:00 +25°C° 0.1 mm 2 m/S 660 mmHg 35%
    13:00 +26°C° 0.1 mm 2 m/S 660 mmHg 35%
    14:00 +26°C° 0.1 mm 3 m/S 660 mmHg 34%
    15:00 +26°C° 0.1 mm 2 m/S 660 mmHg 34%
    16:00 +26°C° 0.1 mm 2 m/S 659 mmHg 34%
    17:00 +26°C° 0.1 mm 2 m/S 659 mmHg 34%
    18:00 +24°C° 0.3 mm 2 m/S 659 mmHg 40%
    19:00 +23°C° 0.3 mm 1 m/S 659 mmHg 46%
    20:00 +21°C° 0.3 mm 1 m/S 659 mmHg 52%
    21:00 +19°C° 0.2 mm 2 m/S 659 mmHg 52%
    22:00 +19°C° 0.2 mm 3 m/S 659 mmHg 51%
    23:00 +18°C° 0.2 mm 3 m/S 660 mmHg 51%

    übermorgen, 27 April, Samstag

    Zeit Temperatur Niederschläge Wind Luftdruck Luftfeuchtigkeit
    00:00 +18°C° 0.3 mm 3 m/S 659 mmHg 51%
    01:00 +18°C° 0.3 mm 3 m/S 659 mmHg 50%
    02:00 +17°C° 0.3 mm 3 m/S 659 mmHg 50%
    03:00 +17°C° 0.1 mm 3 m/S 659 mmHg 49%
    04:00 +17°C° 0.1 mm 4 m/S 659 mmHg 48%
    05:00 +15°C° 0.1 mm 4 m/S 659 mmHg 47%
    06:00 +18°C° 0.1 mm 3 m/S 659 mmHg 43%
    07:00 +20°C° 0.1 mm 3 m/S 660 mmHg 38%
    08:00 +21°C° 0.1 mm 3 m/S 661 mmHg 34%
    09:00 +24°C° 0 mm 2 m/S 661 mmHg 32%
    10:00 +25°C° 0 mm 2 m/S 661 mmHg 30%
    11:00 +26°C° 0 mm 2 m/S 661 mmHg 29%
    12:00 +26°C° 0 mm 2 m/S 661 mmHg 28%
    13:00 +27°C° 0 mm 2 m/S 661 mmHg 28%
    14:00 +27°C° 0 mm 3 m/S 661 mmHg 27%
    15:00 +27°C° 0 mm 3 m/S 660 mmHg 27%
    16:00 +27°C° 0 mm 2 m/S 660 mmHg 27%
    17:00 +27°C° 0 mm 2 m/S 659 mmHg 27%
    18:00 +25°C° 0.1 mm 2 m/S 659 mmHg 32%
    19:00 +23°C° 0.1 mm 1 m/S 659 mmHg 38%
    20:00 +21°C° 0.1 mm 1 m/S 659 mmHg 44%
    21:00 +20°C° 0.1 mm 2 m/S 659 mmHg 44%
    22:00 +19°C° 0.1 mm 2 m/S 659 mmHg 44%
    23:00 +19°C° 0.1 mm 3 m/S 659 mmHg 44%

    28 April, Sonntag

    Zeit Temperatur Niederschläge Wind Luftdruck Luftfeuchtigkeit
    00:00 +18°C° 0.2 mm 3 m/S 658 mmHg 44%
    01:00 +18°C° 0.2 mm 3 m/S 658 mmHg 45%
    02:00 +17°C° 0.2 mm 3 m/S 658 mmHg 45%
    03:00 +17°C° 0.1 mm 3 m/S 657 mmHg 44%
    04:00 +17°C° 0.1 mm 3 m/S 657 mmHg 43%
    05:00 +17°C° 0.1 mm 3 m/S 657 mmHg 42%
    06:00 +18°C° 0 mm 3 m/S 658 mmHg 38%
    07:00 +20°C° 0 mm 3 m/S 658 mmHg 35%
    08:00 +23°C° 0 mm 2 m/S 659 mmHg 31%
    09:00 +24°C° 0 mm 2 m/S 659 mmHg 29%
    10:00 +25°C° 0 mm 2 m/S 660 mmHg 27%
    11:00 +26°C° 0 mm 1 m/S 660 mmHg 25%
    12:00 +27°C° 0 mm 2 m/S 660 mmHg 24%
    13:00 +27°C° 0 mm 2 m/S 659 mmHg 22%
    14:00 +28°C° 0 mm 3 m/S 659 mmHg 21%
    15:00 +28°C° 0 mm 2 m/S 659 mmHg 20%
    16:00 +28°C° 0 mm 2 m/S 659 mmHg 19%
    17:00 +28°C° 0 mm 1 m/S 658 mmHg 19%
    18:00 +26°C° 0 mm 1 m/S 658 mmHg 24%
    19:00 +24°C° 0 mm 2 m/S 658 mmHg 29%
    20:00 +21°C° 0 mm 2 m/S 658 mmHg 34%
    21:00 +21°C° 0 mm 2 m/S 658 mmHg 35%
    22:00 +20°C° 0 mm 3 m/S 658 mmHg 35%
    23:00 +20°C° 0 mm 3 m/S 658 mmHg 36%

    29 April, Montag

    Zeit Temperatur Niederschläge Wind Luftdruck Luftfeuchtigkeit
    00:00 +19°C° 0 mm 3 m/S 658 mmHg 36%
    01:00 +19°C° 0 mm 3 m/S 658 mmHg 35%
    02:00 +18°C° 0 mm 3 m/S 657 mmHg 34%
    03:00 +18°C° 0 mm 3 m/S 657 mmHg 33%
    04:00 +18°C° 0 mm 3 m/S 657 mmHg 33%
    05:00 +17°C° 0 mm 3 m/S 657 mmHg 32%
    06:00 +19°C° 0 mm 3 m/S 657 mmHg 29%
    07:00 +21°C° 0 mm 3 m/S 658 mmHg 26%
    08:00 +24°C° 0 mm 2 m/S 659 mmHg 24%
    09:00 +25°C° 0 mm 2 m/S 659 mmHg 22%
    10:00 +27°C° 0 mm 2 m/S 659 mmHg 20%
    11:00 +28°C° 0 mm 1 m/S 659 mmHg 19%
    12:00 +28°C° 0 mm 2 m/S 659 mmHg 18%
    13:00 +29°C° 0 mm 2 m/S 658 mmHg 18%
    14:00 +29°C° 0 mm 2 m/S 658 mmHg 18%
    15:00 +29°C° 0 mm 2 m/S 658 mmHg 18%
    16:00 +29°C° 0 mm 2 m/S 657 mmHg 19%
    17:00 +29°C° 0 mm 2 m/S 657 mmHg 19%
    18:00 +27°C° 0 mm 1 m/S 657 mmHg 25%
    19:00 +25°C° 0 mm 1 m/S 657 mmHg 31%
    20:00 +21°C° 0 mm 0 m/S 657 mmHg 37%
    21:00 +23°C° 0 mm 1 m/S 657 mmHg 34%
    22:00 +23°C° 0 mm 2 m/S 657 mmHg 32%
    23:00 +23°C° 0 mm 2 m/S 657 mmHg 29%

    30 April, Dienstag

    Zeit Temperatur Niederschläge Wind Luftdruck Luftfeuchtigkeit
    00:00 +22°C° 0 mm 3 m/S 657 mmHg 30%
    01:00 +21°C° 0 mm 3 m/S 656 mmHg 31%
    02:00 +21°C° 0 mm 3 m/S 656 mmHg 33%
    03:00 +20°C° 0 mm 4 m/S 656 mmHg 35%
    04:00 +20°C° 0 mm 4 m/S 656 mmHg 37%
    05:00 +19°C° 0 mm 4 m/S 656 mmHg 40%
    06:00 +20°C° 0 mm 4 m/S 656 mmHg 38%
    07:00 +21°C° 0 mm 3 m/S 657 mmHg 35%
    08:00 +24°C° 0 mm 3 m/S 657 mmHg 33%
    09:00 +25°C° 0 mm 2 m/S 658 mmHg 30%
    10:00 +26°C° 0 mm 1 m/S 658 mmHg 28%
    11:00 +27°C° 0 mm 1 m/S 658 mmHg 25%
    12:00 +26°C° 0.1 mm 1 m/S 658 mmHg 27%
    13:00 +26°C° 0.1 mm 2 m/S 658 mmHg 28%
    14:00 +26°C° 0.1 mm 3 m/S 657 mmHg 30%
    15:00 +26°C° 0.1 mm 2 m/S 657 mmHg 31%
    16:00 +25°C° 0.1 mm 2 m/S 657 mmHg 33%
    17:00 +25°C° 0.1 mm 2 m/S 656 mmHg 34%
    18:00 +24°C° 0 mm 2 m/S 656 mmHg 39%
    19:00 +22°C° 0 mm 1 m/S 656 mmHg 44%
    20:00 +21°C° 0 mm 1 m/S 656 mmHg 49%
    21:00 +20°C° 0.1 mm 2 m/S 656 mmHg 48%
    22:00 +19°C° 0.1 mm 2 m/S 656 mmHg 48%
    23:00 +19°C° 0.1 mm 3 m/S 656 mmHg 47%
    Mehr zeigen